| time (UTC) | temp C | wind direction | speed KPH | gust KPH | rain 1hr cm | rain 24hr cm | rain mn cm | humidity % | barometer mb |
| 20260507032522 | 8 | 326 | 1.6 | 8.0 | 0.00 | 0.18 | 0.00 | 87 | 1011.5 |
| 20260507032034 | 8 | 338 | 0.0 | 4.8 | 0.00 | 0.18 | 0.00 | 87 | 1011.5 |
| 20260507031547 | 8 | 337 | 1.6 | 12.9 | 0.00 | 0.18 | 0.00 | 87 | 1011.5 |
| 20260507031029 | 8 | 333 | 0.0 | 8.0 | 0.00 | 0.18 | 0.00 | 87 | 1011.5 |
| 20260507030538 | 8 | 342 | 0.0 | 4.8 | 0.00 | 0.18 | 0.00 | 87 | 1011.5 |
| 20260507030022 | 8 | 337 | 1.6 | 12.9 | 0.00 | 0.18 | 0.00 | 87 | 1011.5 |
| 20260507025551 | 8 | 332 | 0.0 | 4.8 | 0.00 | 0.20 | 0.00 | 88 | 1011.4 |
| 20260507025047 | 8 | 341 | 0.0 | 8.0 | 0.00 | 0.20 | 0.00 | 87 | 1011.4 |
| 20260507024545 | 8 | 332 | 1.6 | 12.9 | 0.00 | 0.23 | 0.00 | 87 | 1011.4 |
| 20260507024019 | 8 | 329 | 3.2 | 12.9 | 0.00 | 0.28 | 0.00 | 87 | 1011.5 |
| 20260507023531 | 8 | 329 | 0.0 | 8.0 | 0.00 | 0.28 | 0.00 | 87 | 1011.5 |
| 20260507023026 | 8 | 353 | 0.0 | 4.8 | 0.00 | 0.28 | 0.00 | 88 | 1011.4 |
| 20260507022539 | 8 | 339 | 1.6 | 8.0 | 0.00 | 0.30 | 0.00 | 87 | 1011.3 |
| 20260507022042 | 8 | 343 | 1.6 | 8.0 | 0.00 | 0.30 | 0.00 | 88 | 1011.3 |
| 20260507021546 | 8 | 334 | 0.0 | 8.0 | 0.00 | 0.30 | 0.00 | 88 | 1011.3 |
| 20260507021050 | 8 | 329 | 0.0 | 8.0 | 0.00 | 0.30 | 0.00 | 88 | 1011.2 |
| 20260507020523 | 8 | 316 | 0.0 | 8.0 | 0.00 | 0.30 | 0.00 | 88 | 1011.2 |
| 20260507020019 | 8 | 330 | 0.0 | 8.0 | 0.00 | 0.30 | 0.00 | 88 | 1011.2 |
| 20260507015531 | 8 | 331 | 0.0 | 8.0 | 0.00 | 0.30 | 0.00 | 88 | 1011.1 |
| 20260507015027 | 8 | 340 | 0.0 | 4.8 | 0.00 | 0.30 | 0.00 | 88 | 1011.1 |
| 20260507014523 | 8 | 325 | 1.6 | 12.9 | 0.00 | 0.30 | 0.00 | 87 | 1011.1 |
| 20260507014019 | 8 | 0.0 | 0.0 | 0.00 | 0.30 | 0.00 | 87 | 1011.2 | |
| 20260507013551 | 8 | 329 | 1.6 | 8.0 | 0.00 | 0.30 | 0.00 | 87 | 1011.1 |
| 20260507013030 | 8 | 327 | 1.6 | 8.0 | 0.00 | 0.30 | 0.00 | 87 | 1011.0 |
| 20260507012539 | 8 | 338 | 1.6 | 8.0 | 0.00 | 0.30 | 0.00 | 87 | 1011.1 |
| 20260507012019 | 8 | 335 | 1.6 | 8.0 | 0.00 | 0.30 | 0.00 | 87 | 1011.0 |
| 20260507011534 | 8 | 332 | 0.0 | 4.8 | 0.00 | 0.33 | 0.00 | 87 | 1011.0 |
| 20260507011127 | 8 | 319 | 1.6 | 16.1 | 0.00 | 0.33 | 0.00 | 87 | 1010.9 |
| 20260507010522 | 9 | 338 | 0.0 | 4.8 | 0.00 | 0.33 | 0.00 | 88 | 1010.9 |
| 20260507010035 | 9 | 337 | 0.0 | 4.8 | 0.00 | 0.33 | 0.00 | 88 | 1010.9 |
| 20260507005551 | 9 | 333 | 0.0 | 4.8 | 0.00 | 0.33 | 0.00 | 87 | 1010.9 |
| 20260507005027 | 9 | 334 | 0.0 | 4.8 | 0.00 | 0.33 | 0.00 | 87 | 1010.8 |
| 20260507004523 | 9 | 329 | 1.6 | 8.0 | 0.00 | 0.33 | 0.00 | 86 | 1010.8 |
| 20260507004035 | 9 | 343 | 1.6 | 16.1 | 0.00 | 0.33 | 0.00 | 86 | 1010.8 |
| 20260507003531 | 9 | 328 | 0.0 | 4.8 | 0.00 | 0.33 | 0.00 | 87 | 1010.7 |
| 20260507003026 | 9 | 0.0 | 0.0 | 0.00 | 0.33 | 0.00 | 87 | 1010.6 | |
| 20260507002559 | 9 | 0 | 1.6 | 8.0 | 0.00 | 0.33 | 0.00 | 86 | 1010.6 |
| 20260507002019 | 9 | 332 | 0.0 | 4.8 | 0.00 | 0.33 | 0.00 | 87 | 1010.6 |
| 20260507001531 | 9 | 0.0 | 0.0 | 0.00 | 0.33 | 0.00 | 86 | 1010.6 | |
| 20260507001050 | 9 | 344 | 0.0 | 4.8 | 0.00 | 0.33 | 0.00 | 86 | 1010.6 |
| 20260507000523 | 9 | 337 | 1.6 | 4.8 | 0.00 | 0.33 | 0.00 | 86 | 1010.5 |
| 20260507000023 | 9 | 342 | 0.0 | 8.0 | 0.00 | 0.33 | 0.00 | 87 | 1010.5 |
| 20260506235531 | 9 | 0.0 | 0.0 | 0.00 | 0.33 | 0.00 | 87 | 1010.5 | |
| 20260506235047 | 9 | 347 | 0.0 | 4.8 | 0.00 | 0.36 | 0.00 | 87 | 1010.5 |
| 20260506234523 | 9 | 326 | 0.0 | 4.8 | 0.00 | 0.36 | 0.00 | 87 | 1010.5 |
| 20260506234039 | 9 | 0.0 | 0.0 | 0.00 | 0.36 | 0.00 | 87 | 1010.4 | |
| 20260506233531 | 9 | 0.0 | 0.0 | 0.00 | 0.36 | 0.00 | 88 | 1010.4 | |
| 20260506233107 | 9 | 0.0 | 0.0 | 0.00 | 0.36 | 0.00 | 87 | 1010.5 | |
| 20260506232523 | 9 | 334 | 1.6 | 12.9 | 0.00 | 0.38 | 0.00 | 87 | 1010.4 |
| 20260506232019 | 9 | 335 | 0.0 | 4.8 | 0.00 | 0.38 | 0.00 | 88 | 1010.5 |
| 20260506231531 | 9 | 335 | 0.0 | 4.8 | 0.00 | 0.38 | 0.00 | 88 | 1010.4 |
| 20260506231027 | 9 | 0.0 | 0.0 | 0.00 | 0.38 | 0.00 | 87 | 1010.4 | |
| 20260506230526 | 9 | 0.0 | 0.0 | 0.00 | 0.38 | 0.00 | 87 | 1010.4 | |
| 20260506230019 | 9 | 332 | 0.0 | 4.8 | 0.00 | 0.38 | 0.00 | 87 | 1010.3 |
| 20260506225530 | 9 | 0.0 | 0.0 | 0.00 | 0.38 | 0.00 | 87 | 1010.3 | |
| 20260506225027 | 9 | 322 | 0.0 | 4.8 | 0.00 | 0.38 | 0.00 | 87 | 1010.2 |
| 20260506224523 | 9 | 342 | 0.0 | 4.8 | 0.00 | 0.38 | 0.00 | 87 | 1010.3 |
| 20260506224042 | 9 | 0.0 | 0.0 | 0.00 | 0.38 | 0.00 | 87 | 1010.3 | |
| 20260506223531 | 9 | 0.0 | 0.0 | 0.00 | 0.38 | 0.00 | 88 | 1010.2 | |
| 20260506223050 | 9 | 0.0 | 0.0 | 0.00 | 0.38 | 0.00 | 88 | 1010.2 | |
| 20260506222523 | 9 | 0.0 | 0.0 | 0.00 | 0.38 | 0.00 | 88 | 1010.2 | |
| 20260506222019 | 9 | 0.0 | 0.0 | 0.00 | 0.38 | 0.00 | 88 | 1010.1 | |
| 20260506221531 | 9 | 0.0 | 0.0 | 0.00 | 0.38 | 0.00 | 88 | 1010.0 | |
| 20260506221027 | 9 | 0.0 | 0.0 | 0.00 | 0.38 | 0.00 | 87 | 1010.0 | |
| 20260506220523 | 9 | 0.0 | 0.0 | 0.00 | 0.38 | 0.00 | 87 | 1010.0 | |
| 20260506220019 | 9 | 338 | 0.0 | 4.8 | 0.00 | 0.38 | 0.00 | 87 | 1010.0 |
| 20260506215531 | 9 | 317 | 3.2 | 12.9 | 0.00 | 0.38 | 0.38 | 87 | 1010.0 |
| 20260506215030 | 9 | 0.0 | 0.0 | 0.00 | 0.38 | 0.38 | 87 | 1009.9 | |
| 20260506214523 | 9 | 334 | 0.0 | 4.8 | 0.00 | 0.38 | 0.38 | 87 | 1010.0 |
| 20260506214019 | 9 | 0.0 | 0.0 | 0.00 | 0.43 | 0.38 | 87 | 1009.9 | |
| 20260506213531 | 9 | 344 | 0.0 | 4.8 | 0.00 | 0.46 | 0.38 | 87 | 1009.9 |
| 20260506213027 | 9 | 348 | 0.0 | 4.8 | 0.00 | 0.51 | 0.38 | 87 | 1009.9 |
| 20260506212539 | 9 | 305 | 0.0 | 8.0 | 0.00 | 0.51 | 0.38 | 87 | 1009.9 |
| 20260506212019 | 9 | 326 | 3.2 | 12.9 | 0.00 | 0.51 | 0.38 | 88 | 1009.8 |
| 20260506211531 | 9 | 338 | 0.0 | 4.8 | 0.00 | 0.51 | 0.38 | 89 | 1009.8 |
| 20260506211027 | 9 | 0.0 | 0.0 | 0.00 | 0.51 | 0.38 | 89 | 1009.7 | |
| 20260506210523 | 9 | 0.0 | 0.0 | 0.00 | 0.51 | 0.38 | 89 | 1009.7 | |
| 20260506205531 | 9 | 0.0 | 0.0 | 0.00 | 0.51 | 0.38 | 90 | 1009.6 | |
| 20260506205123 | 9 | 0.0 | 0.0 | 0.00 | 0.53 | 0.38 | 91 | 1009.6 | |
| 20260506204522 | 9 | 0.0 | 0.0 | 0.00 | 0.53 | 0.38 | 90 | 1009.5 | |
| 20260506204022 | 9 | 0.0 | 0.0 | 0.00 | 0.53 | 0.38 | 90 | 1009.5 | |
| 20260506203551 | 9 | 0.0 | 0.0 | 0.00 | 0.53 | 0.38 | 90 | 1009.5 | |
| 20260506203027 | 9 | 0.0 | 0.0 | 0.00 | 0.56 | 0.38 | 89 | 1009.5 | |
| 20260506202523 | 9 | 0.0 | 0.0 | 0.00 | 0.56 | 0.38 | 89 | 1009.5 | |
| 20260506202055 | 9 | 0.0 | 0.0 | 0.00 | 0.56 | 0.38 | 89 | 1009.5 | |
| 20260506201531 | 9 | 0.0 | 0.0 | 0.00 | 0.56 | 0.38 | 89 | 1009.4 | |
| 20260506201047 | 9 | 340 | 0.0 | 8.0 | 0.00 | 0.56 | 0.38 | 89 | 1009.5 |
| 20260506200523 | 9 | 0.0 | 0.0 | 0.00 | 0.56 | 0.38 | 89 | 1009.4 | |
| 20260506200019 | 9 | 338 | 1.6 | 8.0 | 0.00 | 0.56 | 0.38 | 89 | 1009.4 |
| 20260506195531 | 9 | 338 | 0.0 | 4.8 | 0.00 | 0.56 | 0.38 | 89 | 1009.4 |
| 20260506195047 | 9 | 342 | 0.0 | 4.8 | 0.00 | 0.56 | 0.38 | 89 | 1009.3 |
| 20260506194523 | 9 | 338 | 0.0 | 4.8 | 0.00 | 0.56 | 0.38 | 89 | 1009.2 |
| 20260506194019 | 9 | 339 | 0.0 | 4.8 | 0.00 | 0.56 | 0.38 | 89 | 1009.2 |
| 20260506193531 | 9 | 334 | 0.0 | 4.8 | 0.00 | 0.61 | 0.38 | 89 | 1009.1 |
| 20260506193027 | 9 | 317 | 1.6 | 8.0 | 0.00 | 0.61 | 0.38 | 88 | 1009.1 |
| 20260506192523 | 9 | 337 | 0.0 | 12.9 | 0.00 | 0.61 | 0.38 | 88 | 1008.9 |
| 20260506192039 | 9 | 328 | 1.6 | 12.9 | 0.00 | 0.64 | 0.38 | 88 | 1008.9 |
| 20260506191531 | 9 | 340 | 0.0 | 8.0 | 0.00 | 0.69 | 0.38 | 88 | 1008.7 |
| 20260506191027 | 9 | 328 | 0.0 | 8.0 | 0.00 | 0.71 | 0.38 | 88 | 1008.8 |
| 20260506190523 | 9 | 337 | 0.0 | 4.8 | 0.00 | 0.71 | 0.38 | 88 | 1008.7 |
| 20260506190022 | 9 | 342 | 0.0 | 8.0 | 0.00 | 0.71 | 0.38 | 88 | 1008.7 |
| 20260506185531 | 9 | 341 | 0.0 | 4.8 | 0.00 | 0.71 | 0.38 | 88 | 1008.5 |
| 20260506185043 | 9 | 328 | 1.6 | 16.1 | 0.00 | 0.79 | 0.38 | 87 | 1008.5 |
| 20260506184523 | 9 | 339 | 1.6 | 16.1 | 0.00 | 0.86 | 0.38 | 87 | 1008.5 |
| 20260506184039 | 9 | 344 | 0.0 | 4.8 | 0.00 | 0.86 | 0.38 | 87 | 1008.5 |
| 20260506183531 | 9 | 335 | 1.6 | 8.0 | 0.00 | 0.89 | 0.38 | 87 | 1008.5 |
| 20260506183027 | 9 | 330 | 0.0 | 8.0 | 0.00 | 0.89 | 0.38 | 87 | 1008.4 |
| 20260506182526 | 9 | 332 | 0.0 | 8.0 | 0.00 | 0.89 | 0.38 | 87 | 1008.2 |
| 20260506182039 | 10 | 347 | 0.0 | 4.8 | 0.00 | 0.89 | 0.38 | 87 | 1008.2 |
| 20260506181603 | 10 | 324 | 1.6 | 16.1 | 0.00 | 0.94 | 0.38 | 86 | 1008.2 |
| 20260506181027 | 10 | 334 | 3.2 | 12.9 | 0.00 | 0.94 | 0.38 | 86 | 1008.0 |
| 20260506180523 | 10 | 338 | 1.6 | 12.9 | 0.00 | 0.97 | 0.38 | 86 | 1008.1 |
| 20260506180019 | 10 | 344 | 0.0 | 4.8 | 0.00 | 0.97 | 0.38 | 86 | 1008.0 |
| 20260506175531 | 10 | 343 | 0.0 | 8.0 | 0.00 | 0.99 | 0.38 | 87 | 1007.9 |
| 20260506175027 | 10 | 340 | 0.0 | 8.0 | 0.00 | 0.99 | 0.38 | 87 | 1008.0 |
| 20260506174523 | 10 | 332 | 1.6 | 12.9 | 0.00 | 0.99 | 0.38 | 87 | 1008.0 |
| 20260506174035 | 10 | 342 | 1.6 | 16.1 | 0.00 | 1.02 | 0.38 | 86 | 1007.9 |
| 20260506173631 | 10 | 324 | 1.6 | 16.1 | 0.00 | 1.02 | 0.38 | 87 | 1008.0 |
| 20260506173027 | 10 | 337 | 1.6 | 8.0 | 0.00 | 1.02 | 0.38 | 86 | 1007.9 |
| 20260506172523 | 10 | 296 | 0.0 | 12.9 | 0.00 | 1.04 | 0.38 | 85 | 1007.9 |
| 20260506172019 | 10 | 332 | 1.6 | 8.0 | 0.00 | 1.04 | 0.38 | 85 | 1008.0 |
| 20260506171534 | 10 | 323 | 1.6 | 12.9 | 0.00 | 1.04 | 0.38 | 85 | 1008.0 |
| 20260506171047 | 10 | 336 | 1.6 | 12.9 | 0.00 | 1.04 | 0.38 | 85 | 1007.9 |
| 20260506170523 | 10 | 0.0 | 0.0 | 0.00 | 1.04 | 0.38 | 85 | 1008.0 | |
| 20260506170019 | 10 | 0.0 | 0.0 | 0.00 | 1.09 | 0.38 | 85 | 1007.9 | |
| 20260506165551 | 10 | 326 | 1.6 | 20.9 | 0.00 | 1.09 | 0.38 | 85 | 1007.8 |
| 20260506165027 | 10 | 323 | 3.2 | 16.1 | 0.00 | 1.09 | 0.38 | 84 | 1007.7 |
| 20260506164523 | 11 | 313 | 0.0 | 8.0 | 0.00 | 1.12 | 0.38 | 85 | 1007.6 |
| 20260506164019 | 11 | 0.0 | 0.0 | 0.00 | 1.12 | 0.38 | 84 | 1007.6 | |
| 20260506163531 | 11 | 339 | 1.6 | 8.0 | 0.00 | 1.12 | 0.38 | 84 | 1007.5 |
| 20260506163048 | 11 | 334 | 1.6 | 8.0 | 0.00 | 1.12 | 0.38 | 84 | 1007.5 |
| 20260506162526 | 11 | 330 | 3.2 | 16.1 | 0.00 | 1.12 | 0.38 | 84 | 1007.4 |
| 20260506162019 | 11 | 335 | 0.0 | 4.8 | 0.00 | 1.12 | 0.38 | 83 | 1007.5 |
| 20260506161535 | 11 | 323 | 1.6 | 8.0 | 0.00 | 1.14 | 0.38 | 84 | 1007.4 |
| 20260506161027 | 11 | 340 | 1.6 | 8.0 | 0.00 | 1.14 | 0.38 | 84 | 1007.4 |
| 20260506160524 | 11 | 335 | 0.0 | 4.8 | 0.00 | 1.14 | 0.38 | 84 | 1007.4 |
| 20260506160022 | 11 | 345 | 0.0 | 8.0 | 0.00 | 1.14 | 0.38 | 83 | 1007.4 |
| 20260506155612 | 11 | 336 | 1.6 | 8.0 | 0.00 | 1.14 | 0.38 | 85 | 1007.4 |
| 20260506155048 | 11 | 359 | 0.0 | 4.8 | 0.00 | 1.14 | 0.38 | 85 | 1007.3 |
| 20260506154540 | 11 | 353 | 0.0 | 4.8 | 0.00 | 1.14 | 0.38 | 84 | 1007.3 |
| 20260506154100 | 11 | 342 | 0.0 | 4.8 | 0.00 | 1.17 | 0.38 | 84 | 1007.2 |
| 20260506153615 | 11 | 331 | 1.6 | 12.9 | 0.00 | 1.17 | 0.38 | 83 | 1007.2 |
| 20260506153103 | 11 | 335 | 1.6 | 12.9 | 0.00 | 1.17 | 0.38 | 83 | 1007.1 |
| 20260506152527 | 11 | 335 | 1.6 | 8.0 | 0.00 | 1.17 | 0.38 | 83 | 1007.0 |
| 20260506152019 | 11 | 327 | 1.6 | 16.1 | 0.00 | 1.19 | 0.38 | 84 | 1007.0 |
| 20260506151531 | 11 | 332 | 3.2 | 12.9 | 0.00 | 1.22 | 0.38 | 84 | 1007.0 |
| 20260506151027 | 11 | 343 | 1.6 | 8.0 | 0.00 | 1.30 | 0.38 | 84 | 1006.9 |
| 20260506150524 | 11 | 330 | 1.6 | 8.0 | 0.00 | 1.32 | 0.38 | 84 | 1006.8 |
| 20260506150022 | 11 | 331 | 3.2 | 12.9 | 0.00 | 1.37 | 0.38 | 84 | 1006.8 |
| 20260506145552 | 11 | 335 | 3.2 | 24.1 | 0.00 | 1.42 | 0.38 | 84 | 1006.8 |
| 20260506145047 | 11 | 333 | 1.6 | 12.9 | 0.00 | 1.45 | 0.38 | 84 | 1006.8 |
| 20260506144527 | 11 | 343 | 1.6 | 8.0 | 0.00 | 1.50 | 0.38 | 85 | 1006.8 |
| 20260506144020 | 11 | 338 | 1.6 | 12.9 | 0.00 | 1.52 | 0.38 | 86 | 1006.8 |
| 20260506143552 | 11 | 327 | 1.6 | 16.1 | 0.00 | 1.55 | 0.38 | 85 | 1006.7 |
| 20260506143028 | 11 | 346 | 0.0 | 8.0 | 0.00 | 1.60 | 0.38 | 85 | 1006.8 |
| 20260506142620 | 11 | 342 | 0.0 | 8.0 | 0.00 | 1.60 | 0.38 | 85 | 1006.7 |
| 20260506142019 | 12 | 343 | 1.6 | 20.9 | 0.00 | 1.63 | 0.38 | 84 | 1006.7 |
| 20260506141532 | 12 | 325 | 3.2 | 16.1 | 0.00 | 1.63 | 0.38 | 84 | 1006.7 |
| 20260506141043 | 12 | 326 | 1.6 | 12.9 | 0.00 | 1.63 | 0.38 | 84 | 1006.6 |
| 20260506140524 | 12 | 340 | 3.2 | 16.1 | 0.00 | 1.63 | 0.38 | 84 | 1006.6 |
| 20260506140055 | 12 | 346 | 1.6 | 16.1 | 0.00 | 1.63 | 0.38 | 85 | 1006.5 |
| 20260506135531 | 12 | 328 | 3.2 | 16.1 | 0.00 | 1.63 | 0.38 | 85 | 1006.4 |
| 20260506135028 | 12 | 339 | 4.8 | 24.1 | 0.00 | 1.63 | 0.38 | 84 | 1006.5 |
| 20260506134544 | 12 | 342 | 0.0 | 8.0 | 0.00 | 1.63 | 0.38 | 83 | 1006.5 |
| 20260506134020 | 12 | 338 | 1.6 | 16.1 | 0.00 | 1.63 | 0.38 | 82 | 1006.5 |
| 20260506133531 | 12 | 334 | 3.2 | 16.1 | 0.00 | 1.63 | 0.38 | 82 | 1006.4 |
| 20260506133108 | 12 | 32 | 0.0 | 4.8 | 0.00 | 1.63 | 0.38 | 83 | 1006.4 |
| 20260506132523 | 12 | 338 | 3.2 | 20.9 | 0.00 | 1.68 | 0.38 | 82 | 1006.4 |
| 20260506132040 | 12 | 342 | 1.6 | 20.9 | 0.00 | 1.70 | 0.38 | 84 | 1006.3 |
| 20260506131532 | 12 | 341 | 3.2 | 20.9 | 0.00 | 1.75 | 0.38 | 85 | 1006.2 |
| 20260506131031 | 12 | 336 | 3.2 | 16.1 | 0.00 | 1.80 | 0.38 | 84 | 1006.2 |
| 20260506130524 | 12 | 334 | 1.6 | 20.9 | 0.00 | 1.83 | 0.38 | 84 | 1006.2 |
| 20260506130019 | 13 | 348 | 1.6 | 8.0 | 0.00 | 1.83 | 0.38 | 83 | 1006.2 |
| 20260506125532 | 13 | 313 | 3.2 | 20.9 | 0.00 | 1.83 | 0.38 | 82 | 1006.2 |
| 20260506125028 | 13 | 337 | 3.2 | 16.1 | 0.00 | 1.83 | 0.38 | 83 | 1006.1 |
| 20260506124524 | 13 | 334 | 1.6 | 12.9 | 0.00 | 1.83 | 0.38 | 83 | 1006.1 |
| 20260506124019 | 13 | 325 | 1.6 | 20.9 | 0.00 | 1.83 | 0.38 | 83 | 1006.1 |
| 20260506123532 | 13 | 332 | 1.6 | 12.9 | 0.00 | 1.83 | 0.38 | 84 | 1006.1 |
| 20260506123031 | 13 | 310 | 3.2 | 16.1 | 0.00 | 1.83 | 0.38 | 84 | 1006.1 |
| 20260506122524 | 13 | 330 | 1.6 | 8.0 | 0.00 | 1.83 | 0.38 | 85 | 1006.1 |
| 20260506122019 | 13 | 333 | 0.0 | 8.0 | 0.00 | 1.83 | 0.38 | 84 | 1006.0 |
| 20260506121532 | 13 | 336 | 1.6 | 8.0 | 0.00 | 1.83 | 0.38 | 84 | 1006.0 |
| 20260506121028 | 13 | 343 | 3.2 | 20.9 | 0.00 | 1.83 | 0.38 | 85 | 1006.0 |
| 20260506120524 | 13 | 336 | 1.6 | 12.9 | 0.00 | 1.83 | 0.38 | 86 | 1005.9 |
| 20260506120023 | 12 | 353 | 0.0 | 8.0 | 0.00 | 1.83 | 0.38 | 87 | 1005.9 |
| 20260506115532 | 12 | 327 | 1.6 | 12.9 | 0.00 | 1.83 | 0.38 | 87 | 1005.9 |
| 20260506115028 | 12 | 339 | 0.0 | 8.0 | 0.00 | 1.83 | 0.38 | 87 | 1006.0 |
| 20260506114547 | 12 | 326 | 4.8 | 16.1 | 0.00 | 1.83 | 0.38 | 86 | 1005.9 |
| 20260506114020 | 12 | 333 | 1.6 | 16.1 | 0.00 | 1.83 | 0.38 | 86 | 1005.9 |
| 20260506113532 | 12 | 333 | 1.6 | 12.9 | 0.00 | 1.83 | 0.38 | 86 | 1005.9 |
| 20260506113051 | 12 | 325 | 1.6 | 12.9 | 0.00 | 1.83 | 0.38 | 86 | 1005.9 |
| 20260506112524 | 13 | 321 | 0.0 | 8.0 | 0.00 | 1.83 | 0.38 | 85 | 1005.8 |
| 20260506112020 | 13 | 0.0 | 0.0 | 0.00 | 1.83 | 0.38 | 85 | 1005.8 | |
| 20260506111612 | 13 | 337 | 0.0 | 8.0 | 0.00 | 1.83 | 0.38 | 85 | 1005.7 |
| 20260506111028 | 13 | 336 | 0.0 | 8.0 | 0.00 | 1.83 | 0.38 | 85 | 1005.7 |
| 20260506110527 | 13 | 343 | 1.6 | 12.9 | 0.00 | 1.83 | 0.38 | 85 | 1005.7 |
| 20260506110020 | 13 | 336 | 1.6 | 8.0 | 0.00 | 1.83 | 0.38 | 85 | 1005.7 |
| 20260506105532 | 13 | 344 | 0.0 | 4.8 | 0.00 | 1.83 | 0.38 | 85 | 1005.7 |
| 20260506105028 | 13 | 341 | 0.0 | 4.8 | 0.00 | 1.83 | 0.38 | 86 | 1005.8 |
| 20260506104524 | 13 | 325 | 1.6 | 8.0 | 0.00 | 1.83 | 0.38 | 86 | 1005.7 |
| 20260506104020 | 13 | 328 | 0.0 | 8.0 | 0.00 | 1.83 | 0.38 | 87 | 1005.7 |
| 20260506103532 | 12 | 326 | 0.0 | 8.0 | 0.00 | 1.83 | 0.38 | 88 | 1005.7 |
| 20260506103028 | 12 | 0.0 | 0.0 | 0.00 | 1.83 | 0.38 | 88 | 1005.8 | |
| 20260506102540 | 13 | 333 | 0.0 | 8.0 | 0.00 | 1.83 | 0.38 | 89 | 1005.7 |
| 20260506102020 | 12 | 343 | 0.0 | 8.0 | 0.00 | 1.83 | 0.38 | 89 | 1005.7 |
| 20260506101532 | 12 | 0.0 | 0.0 | 0.00 | 1.83 | 0.38 | 89 | 1005.6 | |
| 20260506101028 | 12 | 330 | 0.0 | 8.0 | 0.00 | 1.83 | 0.38 | 88 | 1005.6 |
| 20260506100524 | 12 | 330 | 0.0 | 4.8 | 0.00 | 1.83 | 0.38 | 87 | 1005.6 |
| 20260506100020 | 12 | 337 | 0.0 | 8.0 | 0.00 | 1.83 | 0.38 | 88 | 1005.6 |
| 20260506095532 | 12 | 336 | 1.6 | 12.9 | 0.00 | 1.83 | 0.38 | 89 | 1005.5 |
| 20260506095028 | 12 | 0.0 | 0.0 | 0.00 | 1.83 | 0.38 | 88 | 1005.4 | |
| 20260506094524 | 12 | 331 | 0.0 | 8.0 | 0.00 | 1.83 | 0.38 | 88 | 1005.4 |
| 20260506094100 | 12 | 0.0 | 0.0 | 0.00 | 1.83 | 0.38 | 88 | 1005.4 | |
| 20260506093532 | 12 | 0.0 | 0.0 | 0.00 | 1.83 | 0.38 | 88 | 1005.3 | |
| 20260506093048 | 12 | 0.0 | 0.0 | 0.00 | 1.83 | 0.38 | 89 | 1005.3 | |
| 20260506092544 | 12 | 346 | 0.0 | 4.8 | 0.00 | 1.83 | 0.38 | 89 | 1005.3 |
| 20260506092020 | 12 | 0.0 | 0.0 | 0.00 | 1.83 | 0.38 | 89 | 1005.3 | |
| 20260506091532 | 12 | 331 | 0.0 | 4.8 | 0.00 | 1.83 | 0.38 | 88 | 1005.2 |
| 20260506091028 | 12 | 0.0 | 0.0 | 0.00 | 1.83 | 0.38 | 89 | 1005.3 | |
| 20260506090524 | 12 | 0.0 | 0.0 | 0.00 | 1.83 | 0.38 | 89 | 1005.3 | |
| 20260506090020 | 12 | 335 | 0.0 | 4.8 | 0.00 | 1.83 | 0.38 | 88 | 1005.3 |
| 20260506085532 | 12 | 341 | 0.0 | 4.8 | 0.00 | 1.83 | 0.38 | 88 | 1005.3 |
| 20260506085048 | 12 | 335 | 0.0 | 4.8 | 0.00 | 1.83 | 0.38 | 89 | 1005.2 |
| 20260506084524 | 12 | 336 | 1.6 | 12.9 | 0.00 | 1.83 | 0.38 | 88 | 1005.2 |
| 20260506084020 | 12 | 0.0 | 0.0 | 0.00 | 1.83 | 0.38 | 90 | 1005.1 | |
| 20260506083532 | 12 | 318 | 0.0 | 8.0 | 0.00 | 1.83 | 0.38 | 88 | 1005.1 |
| 20260506083029 | 12 | 337 | 0.0 | 4.8 | 0.00 | 1.83 | 0.38 | 89 | 1005.0 |
| 20260506082644 | 12 | 335 | 1.6 | 8.0 | 0.00 | 1.83 | 0.38 | 89 | 1004.9 |
| 20260506082020 | 12 | 336 | 0.0 | 4.8 | 0.00 | 1.83 | 0.38 | 89 | 1005.0 |
| 20260506081552 | 12 | 334 | 1.6 | 8.0 | 0.00 | 1.83 | 0.38 | 89 | 1005.0 |
| 20260506081028 | 12 | 342 | 0.0 | 8.0 | 0.00 | 1.83 | 0.38 | 89 | 1005.0 |
| 20260506080524 | 12 | 0.0 | 0.0 | 0.00 | 1.83 | 0.38 | 89 | 1005.0 | |
| 20260506073028 | 12 | 0.0 | 0.0 | 0.00 | 1.83 | 0.38 | 91 | 1005.0 | |
| 20260506072527 | 12 | 0.0 | 0.0 | 0.00 | 1.83 | 0.38 | 91 | 1005.0 | |
| 20260506072020 | 12 | 0.0 | 0.0 | 0.00 | 1.83 | 0.38 | 91 | 1005.0 | |
| 20260506071532 | 11 | 0.0 | 0.0 | 0.00 | 1.83 | 0.38 | 91 | 1004.9 | |
| 20260506071031 | 11 | 0.0 | 0.0 | 0.00 | 1.83 | 0.38 | 90 | 1005.0 | |
| 20260506070524 | 11 | 0.0 | 0.0 | 0.00 | 1.83 | 0.38 | 91 | 1004.9 | |
| 20260506062023 | 11 | 0.0 | 0.0 | 0.00 | 1.83 | 0.38 | 94 | 1004.8 | |
| 20260506061532 | 11 | 0.0 | 0.0 | 0.03 | 1.83 | 0.38 | 94 | 1004.8 | |
| 20260506061048 | 11 | 0.0 | 0.0 | 0.03 | 1.83 | 0.38 | 94 | 1004.8 | |
| 20260506060550 | 11 | 0.0 | 0.0 | 0.03 | 1.83 | 0.38 | 94 | 1004.7 | |
| 20260506051051 | 11 | 0.0 | 0.0 | 0.13 | 1.80 | 0.36 | 95 | 1004.9 | |
| 20260506050543 | 11 | 0.0 | 0.0 | 0.15 | 1.80 | 0.36 | 94 | 1004.9 | |
| 20260506045028 | 11 | 0.0 | 0.0 | 0.15 | 1.80 | 0.36 | 94 | 1004.8 | |
| 20260506044527 | 11 | 0.0 | 0.0 | 0.15 | 1.83 | 0.36 | 94 | 1004.9 | |
| 20260506044020 | 11 | 0.0 | 0.0 | 0.15 | 1.83 | 0.36 | 94 | 1005.0 | |
| 20260506043533 | 11 | 0.0 | 0.0 | 0.15 | 1.83 | 0.36 | 94 | 1005.0 | |
| 20260506043031 | 11 | 0.0 | 0.0 | 0.13 | 1.80 | 0.33 | 94 | 1005.0 | |
| 20260506042524 | 11 | 0.0 | 0.0 | 0.13 | 1.80 | 0.33 | 94 | 1004.9 | |
| 20260506042036 | 10 | 0.0 | 0.0 | 0.10 | 1.78 | 0.30 | 94 | 1004.9 | |
| 20260506041535 | 11 | 0.0 | 0.0 | 0.05 | 1.75 | 0.28 | 94 | 1005.0 | |
| 20260506041031 | 11 | 0.0 | 0.0 | 0.03 | 1.70 | 0.23 | 94 | 1004.9 | |
| 20260506040524 | 11 | 0.0 | 0.0 | 0.00 | 1.68 | 0.20 | 94 | 1005.0 | |
| 20260506040021 | 11 | 0.0 | 0.0 | 0.00 | 1.68 | 0.20 | 94 | 1005.0 | |
| 20260506035533 | 11 | 0.0 | 0.0 | 0.03 | 1.68 | 0.20 | 94 | 1005.0 | |
| 20260506035031 | 10 | 0.0 | 0.0 | 0.03 | 1.68 | 0.20 | 94 | 1005.0 | |
| 20260506034544 | 11 | 0.0 | 0.0 | 0.05 | 1.68 | 0.20 | 94 | 1005.0 | |
| 20260506034023 | 11 | 0.0 | 0.0 | 0.10 | 1.68 | 0.20 | 94 | 1005.0 | |
| 20260506033533 | 11 | 0.0 | 0.0 | 0.10 | 1.68 | 0.20 | 94 | 1005.0 | |
| 20260506033028 | 11 | 0.0 | 0.0 | 0.10 | 1.68 | 0.20 | 94 | 1005.0 |